Time,TemperatureF,DewpointF,PressureIn,WindDirection,WindDirectionDegrees,WindSpeedMPH,WindSpeedGustMPH,Humidity,HourlyPrecipIn,Conditions,Clouds,dailyrainin,SolarRadiationWatts/m^2,SoftwareType,DateUTC
2013-04-19 00:00:00,66.6,59.5,29.91,SSE,168,3.0,7.0,78,0.00,,,0.01,0.00,VWS V14.01,2013-04-19 04:00:00,
2013-04-19 00:01:00,66.5,59.4,29.91,South,173,3.0,3.0,78,0.00,,,0.00,0.00,VWS V14.01,2013-04-19 04:01:00,
2013-04-19 00:02:00,66.5,59.4,29.91,SE,145,8.0,12.0,78,0.00,,,0.00,0.00,VWS V14.01,2013-04-19 04:02:00,
2013-04-19 00:07:00,66.4,59.3,29.92,South,180,3.0,5.0,78,0.00,,,0.00,0.00,VWS V14.01,2013-04-19 04:07:00,
2013-04-19 00:12:00,66.3,59.6,29.91,SSE,166,1.0,8.0,79,0.00,,,0.00,0.00,VWS V14.01,2013-04-19 04:12:00,
2013-04-19 00:18:00,66.2,59.5,29.91,SSE,150,5.0,10.0,79,0.00,,,0.00,0.00,VWS V14.01,2013-04-19 04:18:00,
2013-04-19 00:23:00,66.0,59.7,29.90,South,178,3.0,10.0,80,0.00,,,0.00,0.00,VWS V14.01,2013-04-19 04:23:00,
2013-04-19 00:28:00,65.9,59.6,29.90,SSE,167,8.0,11.0,80,0.00,,,0.00,0.00,VWS V14.01,2013-04-19 04:28:00,
2013-04-19 00:33:00,65.9,59.6,29.89,SSE,155,3.0,10.0,80,0.00,,,0.00,0.00,VWS V14.01,2013-04-19 04:33:00,
2013-04-19 00:38:00,65.9,59.6,29.89,South,181,3.0,14.0,80,0.00,,,0.00,0.00,VWS V14.01,2013-04-19 04:38:00,
2013-04-19 00:43:00,65.9,59.6,29.90,SSE,164,4.0,11.0,80,0.00,,,0.00,0.00,VWS V14.01,2013-04-19 04:43:00,
2013-04-19 00:48:00,65.8,59.5,29.89,South,173,5.0,7.0,80,0.00,,,0.00,0.00,VWS V14.01,2013-04-19 04:48:00,
2013-04-19 00:53:00,65.7,59.7,29.89,SSE,159,4.0,14.0,81,0.00,,,0.00,0.00,VWS V14.01,2013-04-19 04:53:00,
2013-04-19 00:58:00,65.6,59.6,29.89,South,177,0.0,10.0,81,0.00,,,0.00,0.00,VWS V14.01,2013-04-19 04:58:00,
2013-04-19 01:03:00,65.5,60.2,29.89,South,176,3.0,9.0,83,0.00,,,0.00,0.00,VWS V14.01,2013-04-19 05:03:00,
2013-04-19 01:08:00,65.4,59.8,29.89,South,180,2.0,7.0,82,0.00,,,0.00,0.00,VWS V14.01,2013-04-19 05:08:00,
2013-04-19 01:13:00,65.2,59.6,29.89,SSW,198,1.0,5.0,82,0.00,,,0.00,0.00,VWS V14.01,2013-04-19 05:13:00,
2013-04-19 01:19:00,65.2,59.6,29.89,SSE,164,1.0,7.0,82,0.00,,,0.00,0.00,VWS V14.01,2013-04-19 05:19:00,
2013-04-19 01:24:00,65.1,59.5,29.88,South,183,6.0,9.0,82,0.00,,,0.00,0.00,VWS V14.01,2013-04-19 05:24:00,
2013-04-19 01:29:00,65.1,59.5,29.88,SSE,164,6.0,11.0,82,0.00,,,0.00,0.00,VWS V14.01,2013-04-19 05:29:00,
2013-04-19 01:34:00,65.2,59.9,29.87,SSW,196,7.0,18.0,83,0.00,,,0.00,0.00,VWS V14.01,2013-04-19 05:34:00,
2013-04-19 01:39:00,65.3,59.7,29.87,South,169,3.0,10.0,82,0.00,,,0.00,0.00,VWS V14.01,2013-04-19 05:39:00,
2013-04-19 01:44:00,65.3,59.7,29.87,SSE,164,8.0,13.0,82,0.00,,,0.00,0.00,VWS V14.01,2013-04-19 05:44:00,
2013-04-19 01:49:00,65.3,59.7,29.87,SSW,199,10.0,17.0,82,0.00,,,0.00,0.00,VWS V14.01,2013-04-19 05:49:00,
2013-04-19 01:54:00,65.3,59.7,29.87,South,180,5.0,11.0,82,0.00,,,0.00,0.00,VWS V14.01,2013-04-19 05:54:00,
2013-04-19 01:59:00,65.4,59.8,29.87,SSE,153,5.0,13.0,82,0.00,,,0.00,0.00,VWS V14.01,2013-04-19 05:59:00,
2013-04-19 02:04:00,65.4,59.8,29.87,SSW,194,7.0,15.0,82,0.00,,,0.00,0.00,VWS V14.01,2013-04-19 06:04:00,
2013-04-19 02:09:00,65.5,59.9,29.87,SSW,194,7.0,14.0,82,0.00,,,0.00,0.00,VWS V14.01,2013-04-19 06:09:00,
2013-04-19 02:14:00,65.4,59.8,29.86,South,173,3.0,13.0,82,0.00,,,0.00,0.00,VWS V14.01,2013-04-19 06:14:00,
2013-04-19 02:20:00,65.4,59.8,29.85,South,180,7.0,11.0,82,0.00,,,0.00,0.00,VWS V14.01,2013-04-19 06:20:00,
2013-04-19 02:25:00,65.3,59.7,29.85,South,181,4.0,11.0,82,0.00,,,0.00,0.00,VWS V14.01,2013-04-19 06:25:00,
2013-04-19 02:30:00,65.2,59.9,29.84,South,181,4.0,14.0,83,0.00,,,0.00,0.00,VWS V14.01,2013-04-19 06:30:00,
2013-04-19 02:35:00,65.1,59.8,29.84,South,191,10.0,14.0,83,0.00,,,0.00,0.00,VWS V14.01,2013-04-19 06:35:00,
2013-04-19 02:40:00,65.1,59.8,29.84,SSE,157,11.0,12.0,83,0.00,,,0.00,0.00,VWS V14.01,2013-04-19 06:40:00,
2013-04-19 02:45:00,65.1,59.8,29.84,SSW,194,9.0,11.0,83,0.00,,,0.00,0.00,VWS V14.01,2013-04-19 06:45:00,
2013-04-19 02:50:00,65.1,59.8,29.84,SSE,163,8.0,12.0,83,0.00,,,0.00,0.00,VWS V14.01,2013-04-19 06:50:00,
2013-04-19 02:55:00,65.1,59.8,29.83,SSW,207,7.0,12.0,83,0.00,,,0.00,0.00,VWS V14.01,2013-04-19 06:55:00,
2013-04-19 03:00:00,65.2,59.9,29.83,South,180,10.0,12.0,83,0.00,,,0.00,0.00,VWS V14.01,2013-04-19 07:00:00,
2013-04-19 03:05:00,65.2,59.9,29.83,SSW,198,5.0,15.0,83,0.00,,,0.00,0.00,VWS V14.01,2013-04-19 07:05:00,
2013-04-19 03:10:00,65.2,59.9,29.83,South,190,6.0,10.0,83,0.00,,,0.00,0.00,VWS V14.01,2013-04-19 07:10:00,
2013-04-19 03:15:00,65.4,59.8,29.83,SSW,213,2.0,15.0,82,0.00,,,0.00,0.00,VWS V14.01,2013-04-19 07:15:00,
2013-04-19 03:20:00,65.5,59.9,29.83,South,178,0.0,9.0,82,0.00,,,0.00,0.00,VWS V14.01,2013-04-19 07:20:00,
2013-04-19 03:25:00,65.5,59.9,29.83,SSW,192,2.0,8.0,82,0.00,,,0.00,0.00,VWS V14.01,2013-04-19 07:25:00,
2013-04-19 03:30:00,65.5,59.9,29.83,SSW,200,2.0,14.0,82,0.00,,,0.00,0.00,VWS V14.01,2013-04-19 07:30:00,
2013-04-19 03:35:00,65.4,59.8,29.83,SW,221,7.0,11.0,82,0.00,,,0.00,0.00,VWS V14.01,2013-04-19 07:35:00,
2013-04-19 03:40:00,65.5,59.9,29.83,South,190,4.0,15.0,82,0.00,,,0.00,0.00,VWS V14.01,2013-04-19 07:40:00,
2013-04-19 03:45:00,65.4,60.1,29.83,SSW,211,8.0,11.0,83,0.00,,,0.00,0.00,VWS V14.01,2013-04-19 07:45:00,
2013-04-19 03:50:00,65.4,60.1,29.83,SSE,152,12.0,12.0,83,0.00,,,0.00,0.00,VWS V14.01,2013-04-19 07:50:00,
2013-04-19 03:55:00,65.4,60.1,29.82,SSW,198,9.0,12.0,83,0.00,,,0.00,0.00,VWS V14.01,2013-04-19 07:55:00,
2013-04-19 04:00:00,65.4,60.1,29.82,SSW,202,10.0,15.0,83,0.00,,,0.00,0.00,VWS V14.01,2013-04-19 08:00:00,
2013-04-19 04:05:00,65.4,60.1,29.82,South,171,8.0,10.0,83,0.00,,,0.00,0.00,VWS V14.01,2013-04-19 08:05:00,
2013-04-19 04:10:00,65.3,60.0,29.82,SSW,199,6.0,11.0,83,0.00,,,0.00,0.00,VWS V14.01,2013-04-19 08:10:00,
2013-04-19 04:15:00,65.2,59.9,29.82,SW,222,4.0,11.0,83,0.00,,,0.00,0.00,VWS V14.01,2013-04-19 08:15:00,
2013-04-19 04:20:00,65.2,59.9,29.81,SSW,204,7.0,14.0,83,0.00,,,0.00,0.00,VWS V14.01,2013-04-19 08:20:00,
2013-04-19 04:25:00,65.1,60.2,29.81,South,171,6.0,7.0,84,0.00,,,0.00,0.00,VWS V14.01,2013-04-19 08:25:00,
2013-04-19 04:30:00,65.2,60.2,29.81,SSW,199,1.0,4.0,84,0.00,,,0.00,0.00,VWS V14.01,2013-04-19 08:30:00,
2013-04-19 04:35:00,65.2,60.2,29.82,SSW,209,5.0,8.0,84,0.00,,,0.00,0.00,VWS V14.01,2013-04-19 08:35:00,
2013-04-19 04:41:00,65.3,60.3,29.83,SSW,210,3.0,6.0,84,0.00,,,0.00,0.00,VWS V14.01,2013-04-19 08:41:00,
2013-04-19 04:46:00,65.4,60.1,29.82,SW,217,4.0,7.0,83,0.00,,,0.00,0.00,VWS V14.01,2013-04-19 08:46:00,
2013-04-19 04:51:00,65.4,60.1,29.83,SSW,196,8.0,12.0,83,0.00,,,0.00,0.00,VWS V14.01,2013-04-19 08:51:00,
2013-04-19 04:56:00,65.4,60.1,29.83,South,172,3.0,3.0,83,0.00,,,0.00,0.00,VWS V14.01,2013-04-19 08:56:00,
2013-04-19 05:01:00,65.3,60.3,29.83,SSW,211,4.0,6.0,84,0.00,,,0.00,0.00,VWS V14.01,2013-04-19 09:01:00,
2013-04-19 05:06:00,65.3,60.3,29.82,SSW,209,6.0,8.0,84,0.00,,,0.00,0.00,VWS V14.01,2013-04-19 09:06:00,
2013-04-19 05:11:00,65.2,60.2,29.82,SSW,197,3.0,6.0,84,0.00,,,0.00,0.00,VWS V14.01,2013-04-19 09:11:00,
2013-04-19 05:16:00,65.1,60.2,29.82,SSW,209,4.0,5.0,84,0.00,,,0.00,0.00,VWS V14.01,2013-04-19 09:16:00,
2013-04-19 05:21:00,65.0,60.0,29.81,South,188,1.0,6.0,84,0.00,,,0.00,0.00,VWS V14.01,2013-04-19 09:21:00,
2013-04-19 05:26:00,65.0,60.0,29.81,SSE,167,2.0,7.0,84,0.00,,,0.00,0.00,VWS V14.01,2013-04-19 09:26:00,
2013-04-19 05:31:00,64.9,60.0,29.81,South,191,3.0,5.0,84,0.00,,,0.00,0.00,VWS V14.01,2013-04-19 09:31:00,
2013-04-19 05:36:00,64.9,60.0,29.81,South,172,4.0,11.0,84,0.00,,,0.00,0.00,VWS V14.01,2013-04-19 09:36:00,
2013-04-19 05:41:00,64.9,60.0,29.80,South,176,4.0,7.0,84,0.00,,,0.00,0.00,VWS V14.01,2013-04-19 09:41:00,
2013-04-19 05:47:00,64.8,59.9,29.81,South,175,1.0,10.0,84,0.00,,,0.00,0.00,VWS V14.01,2013-04-19 09:47:00,
2013-04-19 05:52:00,64.8,60.2,29.80,South,186,2.0,7.0,85,0.00,,,0.00,0.00,VWS V14.01,2013-04-19 09:52:00,
2013-04-19 05:57:00,64.7,60.1,29.81,South,184,5.0,7.0,85,0.00,,,0.00,0.00,VWS V14.01,2013-04-19 09:57:00,
2013-04-19 06:02:00,64.6,60.0,29.80,SSE,157,2.0,6.0,85,0.00,,,0.00,0.00,VWS V14.01,2013-04-19 10:02:00,
2013-04-19 06:07:00,64.5,59.9,29.81,SE,134,5.0,10.0,85,0.00,,,0.00,0.00,VWS V14.01,2013-04-19 10:07:00,
2013-04-19 06:12:00,64.4,59.8,29.81,South,191,2.0,7.0,85,0.00,,,0.00,0.00,VWS V14.01,2013-04-19 10:12:00,
2013-04-19 06:17:00,64.3,59.7,29.80,SSW,209,7.0,8.0,85,0.00,,,0.00,0.00,VWS V14.01,2013-04-19 10:17:00,
2013-04-19 06:22:00,64.3,59.7,29.80,SSE,168,2.0,7.0,85,0.00,,,0.00,5.00,VWS V14.01,2013-04-19 10:22:00,
2013-04-19 06:27:00,64.3,60.0,29.80,South,177,6.0,9.0,86,0.00,,,0.00,5.00,VWS V14.01,2013-04-19 10:27:00,
2013-04-19 06:32:00,64.3,60.0,29.80,SSW,205,7.0,11.0,86,0.00,,,0.00,5.00,VWS V14.01,2013-04-19 10:32:00,
2013-04-19 06:37:00,64.3,60.0,29.80,South,180,4.0,9.0,86,0.00,,,0.00,5.00,VWS V14.01,2013-04-19 10:37:00,
2013-04-19 06:43:00,64.3,60.0,29.80,SSW,194,7.0,9.0,86,0.00,,,0.00,11.00,VWS V14.01,2013-04-19 10:43:00,
2013-04-19 06:48:00,64.3,60.0,29.80,SSW,199,3.0,11.0,86,0.00,,,0.00,18.00,VWS V14.01,2013-04-19 10:48:00,
2013-04-19 06:53:00,64.3,60.0,29.80,SSW,195,3.0,8.0,86,0.00,,,0.00,25.00,VWS V14.01,2013-04-19 10:53:00,
2013-04-19 06:58:00,64.3,60.0,29.80,SSW,192,7.0,10.0,86,0.00,,,0.00,30.00,VWS V14.01,2013-04-19 10:58:00,
2013-04-19 07:03:00,64.3,60.0,29.80,South,179,2.0,9.0,86,0.00,,,0.00,40.00,VWS V14.01,2013-04-19 11:03:00,
2013-04-19 07:08:00,64.4,60.1,29.80,SSW,196,5.0,10.0,86,0.00,,,0.00,42.00,VWS V14.01,2013-04-19 11:08:00,
2013-04-19 07:13:00,64.4,60.1,29.80,South,171,4.0,8.0,86,0.00,,,0.00,49.00,VWS V14.01,2013-04-19 11:13:00,
2013-04-19 07:18:00,64.5,60.2,29.80,SSW,213,4.0,9.0,86,0.00,,,0.00,58.00,VWS V14.01,2013-04-19 11:18:00,
2013-04-19 07:23:00,64.5,60.2,29.80,South,188,4.0,9.0,86,0.00,,,0.00,70.00,VWS V14.01,2013-04-19 11:23:00,
2013-04-19 07:28:00,64.6,60.3,29.80,South,170,3.0,9.0,86,0.00,,,0.00,74.00,VWS V14.01,2013-04-19 11:28:00,
2013-04-19 07:33:00,64.7,60.4,29.80,South,182,5.0,8.0,86,0.00,,,0.00,76.00,VWS V14.01,2013-04-19 11:33:00,
2013-04-19 07:38:00,64.8,60.5,29.80,South,172,1.0,13.0,86,0.00,,,0.00,79.00,VWS V14.01,2013-04-19 11:38:00,
2013-04-19 07:43:00,64.9,60.6,29.80,SSW,201,3.0,10.0,86,0.00,,,0.00,70.00,VWS V14.01,2013-04-19 11:43:00,
2013-04-19 07:49:00,65.0,60.7,29.80,South,185,4.0,12.0,86,0.00,,,0.00,76.00,VWS V14.01,2013-04-19 11:49:00,
2013-04-19 07:54:00,65.0,60.7,29.80,South,182,4.0,9.0,86,0.00,,,0.00,67.00,VWS V14.01,2013-04-19 11:54:00,
2013-04-19 07:59:00,65.1,60.8,29.80,SSE,168,2.0,11.0,86,0.00,,,0.00,86.00,VWS V14.01,2013-04-19 11:59:00,
2013-04-19 08:04:00,65.2,61.2,29.80,South,186,4.0,6.0,87,0.00,,,0.00,113.00,VWS V14.01,2013-04-19 12:04:00,
2013-04-19 08:09:00,65.3,61.0,29.80,South,182,4.0,11.0,86,0.00,,,0.00,171.00,VWS V14.01,2013-04-19 12:09:00,
2013-04-19 08:14:00,65.7,61.7,29.80,South,173,3.0,13.0,87,0.00,,,0.00,223.00,VWS V14.01,2013-04-19 12:14:00,
2013-04-19 08:19:00,66.1,61.8,29.80,South,172,6.0,9.0,86,0.00,,,0.00,169.00,VWS V14.01,2013-04-19 12:19:00,
2013-04-19 08:24:00,66.3,62.0,29.80,SSE,156,7.0,12.0,86,0.00,,,0.00,174.00,VWS V14.01,2013-04-19 12:24:00,
2013-04-19 08:29:00,66.4,62.1,29.79,South,171,2.0,11.0,86,0.00,,,0.00,113.00,VWS V14.01,2013-04-19 12:29:00,
2013-04-19 08:34:00,66.3,62.0,29.79,South,169,3.0,13.0,86,0.00,,,0.00,144.00,VWS V14.01,2013-04-19 12:34:00,
2013-04-19 08:39:00,66.3,62.0,29.79,South,182,5.0,11.0,86,0.00,,,0.00,123.00,VWS V14.01,2013-04-19 12:39:00,
2013-04-19 08:44:00,66.2,61.9,29.79,SSE,168,4.0,12.0,86,0.00,,,0.00,163.00,VWS V14.01,2013-04-19 12:44:00,
2013-04-19 08:49:00,66.2,61.9,29.79,South,188,9.0,13.0,86,0.00,,,0.00,91.00,VWS V14.01,2013-04-19 12:49:00,
2013-04-19 08:55:00,66.2,61.9,29.79,SSE,160,6.0,9.0,86,0.00,,,0.00,81.00,VWS V14.01,2013-04-19 12:55:00,
2013-04-19 09:00:00,66.1,61.8,29.78,South,189,6.0,10.0,86,0.00,,,0.00,130.00,VWS V14.01,2013-04-19 13:00:00,
2013-04-19 09:05:00,66.3,62.3,29.78,SSE,163,4.0,11.0,87,0.00,,,0.00,417.00,VWS V14.01,2013-04-19 13:05:00,
2013-04-19 09:10:00,66.9,62.6,29.76,SSW,192,9.0,11.0,86,0.00,,,0.00,214.00,VWS V14.01,2013-04-19 13:10:00,
2013-04-19 09:15:00,67.0,62.3,29.75,South,172,6.0,14.0,85,0.00,,,0.00,172.00,VWS V14.01,2013-04-19 13:15:00,
2013-04-19 09:20:00,67.0,62.3,29.76,South,181,9.0,14.0,85,0.00,,,0.00,260.00,VWS V14.01,2013-04-19 13:20:00,
2013-04-19 09:25:00,67.2,62.2,29.76,SSE,167,8.0,14.0,84,0.00,,,0.00,311.00,VWS V14.01,2013-04-19 13:25:00,
2013-04-19 09:30:00,67.8,62.8,29.75,South,182,9.0,15.0,84,0.00,,,0.00,362.00,VWS V14.01,2013-04-19 13:30:00,
2013-04-19 09:35:00,68.4,63.4,29.75,South,186,4.0,17.0,84,0.00,,,0.00,250.00,VWS V14.01,2013-04-19 13:35:00,
2013-04-19 09:40:00,68.7,63.0,29.75,SSW,195,9.0,16.0,82,0.00,,,0.00,475.00,VWS V14.01,2013-04-19 13:40:00,
2013-04-19 09:45:00,69.1,63.4,29.74,South,190,6.0,18.0,82,0.00,,,0.00,647.00,VWS V14.01,2013-04-19 13:45:00,
2013-04-19 09:50:00,69.1,63.0,29.74,South,183,5.0,16.0,81,0.00,,,0.00,383.00,VWS V14.01,2013-04-19 13:50:00,
2013-04-19 09:55:00,69.1,63.4,29.74,SW,220,10.0,21.0,82,0.00,,,0.00,223.00,VWS V14.01,2013-04-19 13:55:00,
2013-04-19 10:00:00,69.0,63.3,29.74,South,171,5.0,17.0,82,0.00,,,0.00,357.00,VWS V14.01,2013-04-19 14:00:00,
2013-04-19 10:05:00,69.2,63.5,29.74,South,171,6.0,14.0,82,0.00,,,0.00,399.00,VWS V14.01,2013-04-19 14:05:00,
2013-04-19 10:10:00,69.5,63.4,29.73,South,176,10.0,16.0,81,0.00,,,0.00,383.00,VWS V14.01,2013-04-19 14:10:00,
2013-04-19 10:15:00,69.9,63.5,29.74,SSE,155,8.0,18.0,80,0.00,,,0.00,346.00,VWS V14.01,2013-04-19 14:15:00,
2013-04-19 10:20:00,69.8,63.4,29.74,SE,134,6.0,22.0,80,0.00,,,0.00,366.00,VWS V14.01,2013-04-19 14:20:00,
2013-04-19 10:25:00,69.8,63.4,29.73,SSW,197,12.0,22.0,80,0.00,,,0.00,288.00,VWS V14.01,2013-04-19 14:25:00,
2013-04-19 10:30:00,69.5,63.1,29.73,West,259,17.0,25.0,80,0.00,,,0.00,267.00,VWS V14.01,2013-04-19 14:30:00,
2013-04-19 10:35:00,69.3,63.2,29.73,WSW,244,9.0,20.0,81,0.00,,,0.00,250.00,VWS V14.01,2013-04-19 14:35:00,
2013-04-19 10:40:00,69.2,63.1,29.73,SE,140,11.0,20.0,81,0.00,,,0.00,236.00,VWS V14.01,2013-04-19 14:40:00,
2013-04-19 10:45:00,69.1,63.0,29.73,SSE,161,10.0,20.0,81,0.00,,,0.00,246.00,VWS V14.01,2013-04-19 14:45:00,
2013-04-19 10:50:00,69.2,63.5,29.73,SSE,160,3.0,17.0,82,0.00,,,0.00,304.00,VWS V14.01,2013-04-19 14:50:00,
2013-04-19 10:55:00,69.4,63.3,29.72,South,170,7.0,17.0,81,0.00,,,0.00,441.00,VWS V14.01,2013-04-19 14:55:00,
2013-04-19 11:00:00,69.8,63.7,29.72,SSW,200,14.0,20.0,81,0.00,,,0.00,362.00,VWS V14.01,2013-04-19 15:00:00,
2013-04-19 11:05:00,69.8,63.7,29.73,SSW,201,9.0,26.0,81,0.00,,,0.00,276.00,VWS V14.01,2013-04-19 15:05:00,
2013-04-19 11:10:00,69.6,63.5,29.73,SSW,199,17.0,17.0,81,0.00,,,0.00,155.00,VWS V14.01,2013-04-19 15:10:00,
2013-04-19 11:15:00,69.4,63.7,29.72,SSE,154,13.0,13.0,82,0.00,,,0.00,218.00,VWS V14.01,2013-04-19 15:15:00,
2013-04-19 11:20:00,69.2,63.5,29.72,South,190,6.0,8.0,82,0.00,,,0.00,146.00,VWS V14.01,2013-04-19 15:20:00,
2013-04-19 11:26:00,69.2,63.8,29.71,SSW,206,7.0,8.0,83,0.00,,,0.00,132.00,VWS V14.01,2013-04-19 15:26:00,
2013-04-19 11:31:00,69.1,63.4,29.71,SSW,200,8.0,15.0,82,0.00,,,0.00,114.00,VWS V14.01,2013-04-19 15:31:00,
2013-04-19 11:36:00,69.0,63.3,29.71,SSE,167,5.0,9.0,82,0.00,,,0.00,72.00,VWS V14.01,2013-04-19 15:36:00,
2013-04-19 11:41:00,69.0,63.6,29.71,South,180,9.0,9.0,83,0.00,,,0.00,104.00,VWS V14.01,2013-04-19 15:41:00,
2013-04-19 11:46:00,69.0,63.3,29.71,South,175,5.0,9.0,82,0.00,,,0.00,74.00,VWS V14.01,2013-04-19 15:46:00,
2013-04-19 11:51:00,69.0,63.3,29.71,SSW,210,10.0,16.0,82,0.00,,,0.00,98.00,VWS V14.01,2013-04-19 15:51:00,
2013-04-19 11:56:00,69.2,63.8,29.71,South,188,5.0,7.0,83,0.00,,,0.00,104.00,VWS V14.01,2013-04-19 15:56:00,
2013-04-19 12:01:00,69.2,63.5,29.71,SSW,211,8.0,12.0,82,0.00,,,0.00,109.00,VWS V14.01,2013-04-19 16:01:00,
2013-04-19 12:06:00,69.3,63.6,29.70,South,184,4.0,16.0,82,0.00,,,0.00,169.00,VWS V14.01,2013-04-19 16:06:00,
2013-04-19 12:11:00,69.5,63.8,29.70,SSW,200,8.0,11.0,82,0.00,,,0.00,329.00,VWS V14.01,2013-04-19 16:11:00,
2013-04-19 12:16:00,70.0,64.6,29.69,SSW,208,7.0,13.0,83,0.00,,,0.00,376.00,VWS V14.01,2013-04-19 16:16:00,
2013-04-19 12:22:00,70.4,63.9,29.68,SSE,153,12.0,23.0,80,0.00,,,0.00,287.00,VWS V14.01,2013-04-19 16:22:00,
2013-04-19 12:27:00,70.7,64.2,29.68,South,183,5.0,16.0,80,0.00,,,0.00,294.00,VWS V14.01,2013-04-19 16:27:00,
2013-04-19 12:32:00,71.0,64.2,29.68,South,169,7.0,18.0,79,0.00,,,0.00,302.00,VWS V14.01,2013-04-19 16:32:00,
2013-04-19 12:37:00,71.1,64.3,29.68,SSW,207,10.0,18.0,79,0.00,,,0.00,287.00,VWS V14.01,2013-04-19 16:37:00,
2013-04-19 12:42:00,71.4,64.6,29.67,SSW,213,12.0,14.0,79,0.00,,,0.00,357.00,VWS V14.01,2013-04-19 16:42:00,
2013-04-19 12:47:00,71.7,64.8,29.67,SSW,206,7.0,17.0,79,0.00,,,0.00,311.00,VWS V14.01,2013-04-19 16:47:00,
2013-04-19 12:52:00,71.9,65.0,29.67,South,171,5.0,15.0,79,0.00,,,0.00,403.00,VWS V14.01,2013-04-19 16:52:00,
2013-04-19 12:57:00,72.0,65.1,29.66,South,179,14.0,16.0,79,0.00,,,0.00,374.00,VWS V14.01,2013-04-19 16:57:00,
2013-04-19 13:02:00,72.6,65.7,29.66,South,181,4.0,12.0,79,0.00,,,0.00,719.00,VWS V14.01,2013-04-19 17:02:00,
2013-04-19 13:07:00,73.2,65.2,29.66,South,190,8.0,19.0,76,0.00,,,0.00,719.00,VWS V14.01,2013-04-19 17:07:00,
2013-04-19 13:12:00,73.1,65.1,29.65,SSE,166,7.0,18.0,76,0.00,,,0.00,418.00,VWS V14.01,2013-04-19 17:12:00,
2013-04-19 13:17:00,73.4,65.8,29.65,South,169,7.0,13.0,77,0.00,,,0.00,582.00,VWS V14.01,2013-04-19 17:17:00,
2013-04-19 13:23:00,73.6,65.6,29.64,SSW,195,7.0,16.0,76,0.00,,,0.00,392.00,VWS V14.01,2013-04-19 17:23:00,
2013-04-19 13:28:00,73.7,65.7,29.64,SSW,196,7.0,17.0,76,0.00,,,0.00,385.00,VWS V14.01,2013-04-19 17:28:00,
2013-04-19 13:33:00,73.7,65.3,29.64,SSW,213,12.0,18.0,75,0.00,,,0.00,311.00,VWS V14.01,2013-04-19 17:33:00,
2013-04-19 13:38:00,73.7,65.3,29.63,South,169,7.0,16.0,75,0.00,,,0.00,468.00,VWS V14.01,2013-04-19 17:38:00,
2013-04-19 13:43:00,74.0,65.6,29.63,ESE,123,9.0,15.0,75,0.00,,,0.00,323.00,VWS V14.01,2013-04-19 17:43:00,
2013-04-19 13:48:00,74.2,65.8,29.62,South,186,6.0,12.0,75,0.00,,,0.00,397.00,VWS V14.01,2013-04-19 17:48:00,
2013-04-19 13:53:00,74.4,65.6,29.62,SSW,192,10.0,21.0,74,0.00,,,0.00,302.00,VWS V14.01,2013-04-19 17:53:00,
2013-04-19 13:58:00,74.1,65.3,29.61,SSW,204,7.0,17.0,74,0.00,,,0.00,265.00,VWS V14.01,2013-04-19 17:58:00,
2013-04-19 14:03:00,74.0,65.2,29.61,SSW,193,21.0,21.0,74,0.00,,,0.00,287.00,VWS V14.01,2013-04-19 18:03:00,
2013-04-19 14:08:00,74.0,65.2,29.59,South,183,5.0,13.0,74,0.00,,,0.00,279.00,VWS V14.01,2013-04-19 18:08:00,
2013-04-19 14:13:00,74.0,65.2,29.59,South,191,15.0,16.0,74,0.00,,,0.00,241.00,VWS V14.01,2013-04-19 18:13:00,
2013-04-19 14:19:00,73.9,65.1,29.59,South,188,7.0,21.0,74,0.00,,,0.00,220.00,VWS V14.01,2013-04-19 18:19:00,
2013-04-19 14:24:00,73.7,65.3,29.59,South,186,11.0,16.0,75,0.00,,,0.00,179.00,VWS V14.01,2013-04-19 18:24:00,
2013-04-19 14:29:00,73.5,65.1,29.58,SSE,167,12.0,22.0,75,0.00,,,0.00,160.00,VWS V14.01,2013-04-19 18:29:00,
2013-04-19 14:34:00,73.4,65.0,29.58,South,188,14.0,20.0,75,0.00,,,0.00,178.00,VWS V14.01,2013-04-19 18:34:00,
2013-04-19 14:39:00,73.3,64.9,29.58,South,184,13.0,16.0,75,0.00,,,0.00,230.00,VWS V14.01,2013-04-19 18:39:00,
2013-04-19 14:44:00,73.3,65.3,29.57,SSE,152,10.0,15.0,76,0.00,,,0.00,236.00,VWS V14.01,2013-04-19 18:44:00,
2013-04-19 14:49:00,73.4,65.0,29.57,South,179,7.0,20.0,75,0.00,,,0.00,158.00,VWS V14.01,2013-04-19 18:49:00,
2013-04-19 14:54:00,73.4,65.0,29.57,SSW,194,9.0,19.0,75,0.00,,,0.00,188.00,VWS V14.01,2013-04-19 18:54:00,
2013-04-19 14:59:00,73.4,65.0,29.58,South,188,6.0,16.0,75,0.00,,,0.00,81.00,VWS V14.01,2013-04-19 18:59:00,
2013-04-19 15:04:00,73.4,65.0,29.58,South,188,1.0,21.0,75,0.00,,,0.00,81.00,VWS V14.01,2013-04-19 19:04:00,
2013-04-19 15:09:00,73.2,64.8,29.58,SW,222,16.0,23.0,75,0.00,,,0.00,65.00,VWS V14.01,2013-04-19 19:09:00,
2013-04-19 15:15:00,73.1,64.7,29.57,South,190,10.0,23.0,75,0.00,,,0.00,67.00,VWS V14.01,2013-04-19 19:15:00,
2013-04-19 15:20:00,73.0,65.0,29.57,SSW,205,9.0,16.0,76,0.00,,,0.00,83.00,VWS V14.01,2013-04-19 19:20:00,
2013-04-19 15:25:00,73.0,64.6,29.57,SSW,204,9.0,21.0,75,0.00,,,0.00,195.00,VWS V14.01,2013-04-19 19:25:00,
2013-04-19 15:30:00,73.2,65.2,29.57,South,187,18.0,20.0,76,0.00,,,0.00,179.00,VWS V14.01,2013-04-19 19:30:00,
2013-04-19 15:35:00,73.4,65.0,29.56,South,176,6.0,18.0,75,0.00,,,0.00,193.00,VWS V14.01,2013-04-19 19:35:00,
2013-04-19 15:40:00,73.5,65.5,29.56,South,172,8.0,16.0,76,0.00,,,0.00,113.00,VWS V14.01,2013-04-19 19:40:00,
2013-04-19 15:45:00,73.4,65.4,29.56,SW,217,12.0,17.0,76,0.00,,,0.00,74.00,VWS V14.01,2013-04-19 19:45:00,
2013-04-19 15:50:00,73.3,65.3,29.56,SSW,198,10.0,20.0,76,0.00,,,0.00,95.00,VWS V14.01,2013-04-19 19:50:00,
2013-04-19 15:55:00,73.2,65.2,29.56,SSW,206,9.0,16.0,76,0.00,,,0.00,86.00,VWS V14.01,2013-04-19 19:55:00,
2013-04-19 16:00:00,73.1,65.1,29.56,South,187,2.0,19.0,76,0.00,,,0.00,88.00,VWS V14.01,2013-04-19 20:00:00,
2013-04-19 16:05:00,73.0,65.0,29.55,South,169,4.0,16.0,76,0.00,,,0.00,74.00,VWS V14.01,2013-04-19 20:05:00,
2013-04-19 16:10:00,73.0,65.0,29.56,SSW,198,7.0,18.0,76,0.00,,,0.00,35.00,VWS V14.01,2013-04-19 20:10:00,
2013-04-19 16:15:00,72.9,65.3,29.56,SSW,197,9.0,12.0,77,0.00,,,0.00,39.00,VWS V14.01,2013-04-19 20:15:00,
2013-04-19 16:20:00,72.9,65.3,29.55,South,182,7.0,18.0,77,0.00,,,0.00,51.00,VWS V14.01,2013-04-19 20:20:00,
2013-04-19 16:25:00,72.9,65.3,29.55,SSW,205,7.0,10.0,77,0.00,,,0.00,56.00,VWS V14.01,2013-04-19 20:25:00,
2013-04-19 16:30:00,73.0,65.4,29.55,South,183,1.0,9.0,77,0.00,,,0.00,76.00,VWS V14.01,2013-04-19 20:30:00,
2013-04-19 16:35:00,73.0,65.4,29.54,South,172,7.0,7.0,77,0.00,,,0.00,93.00,VWS V14.01,2013-04-19 20:35:00,
2013-04-19 16:41:00,73.0,65.4,29.55,SSW,209,7.0,9.0,77,0.00,,,0.00,67.00,VWS V14.01,2013-04-19 20:41:00,
2013-04-19 16:46:00,73.0,65.4,29.54,SSW,202,5.0,12.0,77,0.00,,,0.00,65.00,VWS V14.01,2013-04-19 20:46:00,
2013-04-19 16:51:00,73.0,65.4,29.53,South,186,7.0,8.0,77,0.00,,,0.00,54.00,VWS V14.01,2013-04-19 20:51:00,
2013-04-19 16:56:00,73.1,65.5,29.54,South,175,6.0,12.0,77,0.00,,,0.00,37.00,VWS V14.01,2013-04-19 20:56:00,
2013-04-19 17:01:00,73.1,65.5,29.53,South,190,5.0,8.0,77,0.00,,,0.00,42.00,VWS V14.01,2013-04-19 21:01:00,
2013-04-19 17:06:00,73.1,65.5,29.54,South,179,11.0,17.0,77,0.00,,,0.00,44.00,VWS V14.01,2013-04-19 21:06:00,
2013-04-19 17:11:00,73.2,65.6,29.54,SSW,207,7.0,11.0,77,0.00,,,0.00,33.00,VWS V14.01,2013-04-19 21:11:00,
2013-04-19 17:16:00,73.2,65.9,29.54,South,188,7.0,8.0,78,0.00,,,0.00,44.00,VWS V14.01,2013-04-19 21:16:00,
2013-04-19 17:21:00,73.1,65.8,29.54,SSW,199,6.0,12.0,78,0.00,,,0.00,26.00,VWS V14.01,2013-04-19 21:21:00,
2013-04-19 17:26:00,73.0,66.1,29.55,SSW,199,6.0,11.0,79,0.00,,,0.00,19.00,VWS V14.01,2013-04-19 21:26:00,
2013-04-19 17:32:00,72.7,66.5,29.55,SW,219,6.0,6.0,81,0.02,,,0.02,19.00,VWS V14.01,2013-04-19 21:32:00,
2013-04-19 17:37:00,72.0,66.6,29.55,SSW,199,4.0,16.0,83,0.03,,,0.03,37.00,VWS V14.01,2013-04-19 21:37:00,
2013-04-19 17:42:00,71.3,66.2,29.55,WSW,237,8.0,10.0,84,0.04,,,0.04,19.00,VWS V14.01,2013-04-19 21:42:00,
2013-04-19 17:47:00,70.9,66.5,29.56,SSW,200,6.0,8.0,86,0.05,,,0.05,21.00,VWS V14.01,2013-04-19 21:47:00,
2013-04-19 17:52:00,70.5,66.4,29.57,West,274,1.0,4.0,87,0.06,,,0.06,23.00,VWS V14.01,2013-04-19 21:52:00,
2013-04-19 17:57:00,70.0,66.6,29.57,West,278,3.0,4.0,89,0.07,,,0.07,7.00,VWS V14.01,2013-04-19 21:57:00,
2013-04-19 18:02:00,68.8,64.8,29.60,NW,316,13.0,16.0,87,0.10,,,0.10,5.00,VWS V14.01,2013-04-19 22:02:00,
2013-04-19 18:07:00,66.2,61.9,29.58,West,260,8.0,12.0,86,0.23,,,0.23,14.00,VWS V14.01,2013-04-19 22:07:00,
2013-04-19 18:12:00,64.6,61.0,29.58,WNW,286,4.0,11.0,88,0.27,,,0.27,21.00,VWS V14.01,2013-04-19 22:12:00,
2013-04-19 18:17:00,63.4,60.4,29.56,West,260,7.0,13.0,90,0.29,,,0.29,9.00,VWS V14.01,2013-04-19 22:17:00,
2013-04-19 18:22:00,62.8,60.5,29.59,NW,317,3.0,8.0,92,0.40,,,0.40,7.00,VWS V14.01,2013-04-19 22:22:00,
2013-04-19 18:27:00,62.5,60.5,29.60,NW,316,1.0,5.0,93,0.43,,,0.43,5.00,VWS V14.01,2013-04-19 22:27:00,
2013-04-19 18:32:00,62.2,60.2,29.61,WSW,256,0.0,10.0,93,0.48,,,0.49,7.00,VWS V14.01,2013-04-19 22:32:00,
2013-04-19 18:38:00,62.1,60.4,29.62,NW,304,0.0,5.0,94,0.48,,,0.51,5.00,VWS V14.01,2013-04-19 22:38:00,
2013-04-19 18:43:00,62.0,60.3,29.63,West,274,3.0,5.0,94,0.48,,,0.52,5.00,VWS V14.01,2013-04-19 22:43:00,
2013-04-19 18:48:00,61.7,60.0,29.62,NW,319,1.0,9.0,94,0.48,,,0.53,7.00,VWS V14.01,2013-04-19 22:48:00,
2013-04-19 18:53:00,61.3,59.6,29.62,NW,317,5.0,12.0,94,0.48,,,0.54,9.00,VWS V14.01,2013-04-19 22:53:00,
2013-04-19 18:58:00,60.6,58.9,29.61,NW,307,6.0,14.0,94,0.48,,,0.55,9.00,VWS V14.01,2013-04-19 22:58:00,
2013-04-19 19:03:00,59.7,57.7,29.61,North,355,7.0,13.0,93,0.48,,,0.56,7.00,VWS V14.01,2013-04-19 23:03:00,
2013-04-19 19:08:00,59.0,57.0,29.62,NW,307,5.0,11.0,93,0.36,,,0.57,9.00,VWS V14.01,2013-04-19 23:08:00,
2013-04-19 19:13:00,58.9,57.2,29.62,NW,308,0.0,8.0,94,0.31,,,0.57,7.00,VWS V14.01,2013-04-19 23:13:00,
2013-04-19 19:18:00,58.6,56.9,29.62,NW,313,4.0,10.0,94,0.29,,,0.57,11.00,VWS V14.01,2013-04-19 23:18:00,
2013-04-19 19:23:00,58.3,56.6,29.63,NNW,331,6.0,8.0,94,0.27,,,0.57,0.00,VWS V14.01,2013-04-19 23:23:00,
2013-04-19 19:28:00,58.2,56.5,29.64,North,355,6.0,7.0,94,0.15,,,0.57,0.00,VWS V14.01,2013-04-19 23:28:00,
2013-04-19 19:34:00,58.2,56.8,29.64,North,355,3.0,5.0,95,0.11,,,0.57,0.00,VWS V14.01,2013-04-19 23:34:00,
2013-04-19 19:39:00,58.2,56.8,29.64,North,355,2.0,5.0,95,0.07,,,0.57,0.00,VWS V14.01,2013-04-19 23:39:00,
2013-04-19 19:44:00,57.9,56.2,29.65,North,355,0.0,4.0,94,0.06,,,0.57,0.00,VWS V14.01,2013-04-19 23:44:00,
2013-04-19 19:49:00,57.7,56.0,29.65,North,355,2.0,5.0,94,0.04,,,0.57,0.00,VWS V14.01,2013-04-19 23:49:00,
2013-04-19 19:54:00,57.5,55.8,29.65,NNW,331,8.0,9.0,94,0.04,,,0.57,0.00,VWS V14.01,2013-04-19 23:54:00,
2013-04-19 19:59:00,57.2,55.5,29.65,NNW,327,5.0,13.0,94,0.03,,,0.57,0.00,VWS V14.01,2013-04-19 23:59:00,
2013-04-19 20:04:00,56.9,54.9,29.66,NNW,347,2.0,6.0,93,0.02,,,0.57,0.00,VWS V14.01,2013-04-20 00:04:00,
2013-04-19 20:09:00,56.8,54.8,29.65,NNW,334,3.0,5.0,93,0.00,,,0.57,0.00,VWS V14.01,2013-04-20 00:09:00,
2013-04-19 20:14:00,56.6,54.3,29.66,NW,318,2.0,10.0,92,0.00,,,0.57,0.00,VWS V14.01,2013-04-20 00:14:00,
2013-04-19 20:19:00,56.3,53.4,29.66,NNW,329,4.0,10.0,90,0.00,,,0.57,0.00,VWS V14.01,2013-04-20 00:19:00,
2013-04-19 20:24:00,56.0,52.2,29.66,NW,323,7.0,9.0,87,0.01,,,0.58,0.00,VWS V14.01,2013-04-20 00:24:00,
2013-04-19 20:30:00,55.7,50.6,29.66,NNW,333,4.0,9.0,83,0.01,,,0.58,0.00,VWS V14.01,2013-04-20 00:30:00,
2013-04-19 20:35:00,55.5,49.1,29.67,NW,316,6.0,16.0,79,0.01,,,0.58,0.00,VWS V14.01,2013-04-20 00:35:00,
2013-04-19 20:40:00,55.5,48.1,29.67,NNW,327,3.0,11.0,76,0.01,,,0.58,0.00,VWS V14.01,2013-04-20 00:40:00,
2013-04-19 20:45:00,55.4,48.0,29.67,NNW,342,6.0,13.0,76,0.01,,,0.58,0.00,VWS V14.01,2013-04-20 00:45:00,
2013-04-19 20:50:00,55.4,47.3,29.68,WNW,299,10.0,11.0,74,0.01,,,0.58,0.00,VWS V14.01,2013-04-20 00:50:00,
2013-04-19 20:55:00,55.4,47.3,29.70,WNW,302,3.0,6.0,74,0.01,,,0.58,0.00,VWS V14.01,2013-04-20 00:55:00,
2013-04-19 21:00:00,55.2,46.7,29.69,NNW,342,6.0,12.0,73,0.01,,,0.58,0.00,VWS V14.01,2013-04-20 01:00:00,
2013-04-19 21:05:00,55.2,46.3,29.71,NW,320,9.0,12.0,72,0.01,,,0.58,0.00,VWS V14.01,2013-04-20 01:05:00,
2013-04-19 21:10:00,55.3,45.7,29.70,North,355,6.0,12.0,70,0.01,,,0.58,0.00,VWS V14.01,2013-04-20 01:10:00,
2013-04-19 21:15:00,55.3,45.7,29.70,NNW,332,2.0,11.0,70,0.01,,,0.58,0.00,VWS V14.01,2013-04-20 01:15:00,
2013-04-19 21:20:00,55.3,45.3,29.71,NNW,330,8.0,12.0,69,0.01,,,0.58,0.00,VWS V14.01,2013-04-20 01:20:00,
2013-04-19 21:25:00,55.3,44.9,29.72,NNW,328,5.0,10.0,68,0.00,,,0.58,0.00,VWS V14.01,2013-04-20 01:25:00,
2013-04-19 21:30:00,55.2,44.8,29.72,NW,320,9.0,11.0,68,0.00,,,0.58,0.00,VWS V14.01,2013-04-20 01:30:00,
2013-04-19 21:35:00,55.1,44.0,29.73,NW,321,5.0,8.0,66,0.00,,,0.58,0.00,VWS V14.01,2013-04-20 01:35:00,
2013-04-19 21:41:00,55.1,43.6,29.72,NW,315,3.0,8.0,65,0.00,,,0.58,0.00,VWS V14.01,2013-04-20 01:41:00,
2013-04-19 21:46:00,55.0,43.9,29.73,NW,324,12.0,13.0,66,0.00,,,0.58,0.00,VWS V14.01,2013-04-20 01:46:00,
2013-04-19 21:51:00,54.8,43.3,29.72,NW,307,9.0,9.0,65,0.00,,,0.58,0.00,VWS V14.01,2013-04-20 01:51:00,
2013-04-19 21:56:00,54.8,43.3,29.72,NNW,336,7.0,10.0,65,0.00,,,0.58,0.00,VWS V14.01,2013-04-20 01:56:00,
2013-04-19 22:01:00,54.6,42.7,29.72,NW,326,12.0,15.0,64,0.00,,,0.58,0.00,VWS V14.01,2013-04-20 02:01:00,
2013-04-19 22:06:00,54.6,42.7,29.73,North,350,11.0,11.0,64,0.00,,,0.58,0.00,VWS V14.01,2013-04-20 02:06:00,
2013-04-19 22:11:00,54.5,42.6,29.73,NNW,339,8.0,8.0,64,0.00,,,0.58,0.00,VWS V14.01,2013-04-20 02:11:00,
2013-04-19 22:16:00,54.4,42.5,29.74,NNW,347,8.0,13.0,64,0.00,,,0.58,0.00,VWS V14.01,2013-04-20 02:16:00,
2013-04-19 22:21:00,54.2,41.9,29.74,NW,304,3.0,9.0,63,0.00,,,0.58,0.00,VWS V14.01,2013-04-20 02:21:00,
2013-04-19 22:26:00,54.1,41.8,29.74,NNW,344,7.0,12.0,63,0.00,,,0.58,0.00,VWS V14.01,2013-04-20 02:26:00,
2013-04-19 22:31:00,54.0,42.1,29.74,NW,313,10.0,12.0,64,0.00,,,0.58,0.00,VWS V14.01,2013-04-20 02:31:00,
2013-04-19 22:36:00,53.8,41.5,29.74,WNW,303,7.0,16.0,63,0.00,,,0.58,0.00,VWS V14.01,2013-04-20 02:36:00,
2013-04-19 22:42:00,53.7,41.8,29.75,NW,313,3.0,9.0,64,0.00,,,0.58,0.00,VWS V14.01,2013-04-20 02:42:00,
2013-04-19 22:47:00,53.5,41.2,29.74,WNW,295,7.0,19.0,63,0.00,,,0.58,0.00,VWS V14.01,2013-04-20 02:47:00,
2013-04-19 22:52:00,53.5,41.6,29.75,NW,325,2.0,6.0,64,0.00,,,0.58,0.00,VWS V14.01,2013-04-20 02:52:00,
2013-04-19 22:57:00,53.4,41.9,29.75,NW,321,1.0,6.0,65,0.00,,,0.58,0.00,VWS V14.01,2013-04-20 02:57:00,
2013-04-19 23:02:00,53.2,41.8,29.76,NW,315,6.0,14.0,65,0.00,,,0.58,0.00,VWS V14.01,2013-04-20 03:02:00,
2013-04-19 23:07:00,53.2,41.3,29.75,NW,326,3.0,10.0,64,0.00,,,0.58,0.00,VWS V14.01,2013-04-20 03:07:00,
2013-04-19 23:12:00,53.1,41.3,29.76,NW,309,4.0,10.0,64,0.00,,,0.58,0.00,VWS V14.01,2013-04-20 03:12:00,
2013-04-19 23:17:00,53.0,41.6,29.76,NW,326,9.0,10.0,65,0.00,,,0.58,0.00,VWS V14.01,2013-04-20 03:17:00,
2013-04-19 23:22:00,52.9,41.1,29.76,WNW,292,3.0,9.0,64,0.00,,,0.58,0.00,VWS V14.01,2013-04-20 03:22:00,
2013-04-19 23:27:00,52.9,41.1,29.76,NW,313,8.0,18.0,64,0.00,,,0.58,0.00,VWS V14.01,2013-04-20 03:27:00,
2013-04-19 23:32:00,52.8,41.0,29.76,NW,322,2.0,11.0,64,0.00,,,0.58,0.00,VWS V14.01,2013-04-20 03:32:00,
2013-04-19 23:37:00,52.8,41.0,29.76,NW,321,7.0,13.0,64,0.00,,,0.58,0.00,VWS V14.01,2013-04-20 03:37:00,
2013-04-19 23:43:00,52.8,41.4,29.75,NNW,339,6.0,8.0,65,0.00,,,0.58,0.00,VWS V14.01,2013-04-20 03:43:00,
2013-04-19 23:48:00,52.7,41.3,29.76,NW,306,3.0,10.0,65,0.00,,,0.58,0.00,VWS V14.01,2013-04-20 03:48:00,
2013-04-19 23:53:00,52.6,41.2,29.76,NNW,331,10.0,10.0,65,0.00,,,0.58,0.00,VWS V14.01,2013-04-20 03:53:00,
2013-04-19 23:58:00,52.5,41.1,29.76,NW,321,5.0,10.0,65,0.00,,,0.58,0.00,VWS V14.01,2013-04-20 03:58:00,